{"data":{"norad_id":58445,"intl_designator":"2023-183J","name":"STARLINK-30961","alt_names":[],"object_type":"PAYLOAD","status":"ACTIVE","operator":null,"country":"US","launch_date":"2023-11-28","launch_site_code":"AFETR","launch_vehicle":null,"mission":null,"orbit_class":"UNKNOWN","rcs_meters":null,"size_class":null,"mass_kg":null,"dimensions":null,"purposes":["comms"],"wikipedia_slug":null,"has_3d_model":false,"image_url":null,"decayed_at":null,"tle_current":{"epoch":"2026-09-20T07:50:07.201536Z","epoch_age_seconds":161706,"freshness":"FRESH","line1":"1 58445U 23183J   26263.32647224 -.00000020  00000+0  88107-5 0  9993","line2":"2 58445  43.0044  22.2234 0001426 263.2009  96.8681 15.27576428156505","mean_motion":15.27576428,"eccentricity":0.0001426,"inclination_deg":43.0044,"raan_deg":22.2234,"arg_perigee_deg":263.2009,"mean_anomaly_deg":96.8681,"bstar":8.8107e-6,"rev_number":15650,"period_min":94.266969141789,"perigee_km":482.08138525099,"apogee_km":484.03819857604,"semimajor_km":6861.1967919135,"source":"CELESTRAK","updated_at":"2026-09-21T09:00:33.876833Z"}}}